Probability
0 42 100 97 97 97 94 90 81 52 29 16 6 0 0 0 0 0 0 3 3 3 3 3 3 3 3 0 0 0 0 0 0 0 0 0 0 0 0 0 0 0 0
3 65 100 100 97 97 97 90 74 42 19 16 3 0 0 0 0 0 0 3 3 0 3 0 0 0 0 0 0 0 0 0 0 0 0 0 0 0 0 0 0 0 0
35 94 100 100 100 100 97 90 58 23 16 6 0 0 3 0 0 0 0 0 0 0 0 0 0 0 0 0 0 0 0 0 0 0 0 0 0 0 0 0 0 0 0
68 97 100 100 100 97 97 81 42 16 10 0 0 6 3 0 0 0 0 0 0 0 0 0 0 0 0 0 0 0 0 0 0 0 0 0 0 0 0 0 0 0 0
71 90 100 100 100 97 90 61 29 16 3 0 6 6 3 0 0 0 0 0 0 0 0 0 0 0 0 0 0 0 0 0 0 0 0 0 0 0 0 0 0 0 0
39 90 100 100 100 97 81 52 19 6 3 0 6 13 6 0 0 3 0 0 0 0 0 0 0 0 0 0 0 0 0 0 0 0 0 0 0 0 0 0 0 0 0
45 84 100 100 100 94 74 39 13 3 3 3 6 13 6 3 0 0 0 0 0 0 0 0 0 0 0 0 0 0 0 0 0 0 0 0 0 0 0 0 0 0 0
52 87 97 100 100 94 71 39 13 3 3 6 10 6 3 6 3 0 0 0 0 0 0 0 0 0 0 0 0 0 0 0 0 0 0 0 0 0 0 0 0 0 0
48 74 90 87 87 84 65 39 13 3 10 6 10 6 3 0 0 0 0 0 0 0 0 0 0 0 0 0 0 0 0 0 0 0 0 0 0 0 0 0 0 0 0
35 55 71 55 45 32 26 10 6 3 3 3 3 0 0 0 0 0 0 0 0 0 0 0 0 0 0 0 0 0 0 0 0 0 0 0 0 0 0 0 0 0 0
42 42 42 26 10 6 3 3 3 3 0 0 0 0 0 0 0 0 0 0 0 0 0 0 0 0 0 0 0 0 0 0 0 0 0 0 0 0 0 0 0 0 0
16 26 26 13 10 6 0 0 0 0 0 0 0 0 0 0 0 0 0 0 0 0 0 0 0 0 0 0 0 0 0 0 0 0 0 0 0 0 0 0 0 0 0
13 16 16 10 6 6 0 0 0 0 0 0 0 0 0 0 0 0 0 0 0 0 0 0 0 0 0 0 0 0 0 0 0 0 0 0 0 0 0 0 0 0 0
10 3 0 3 3 3 0 0 0 0 0 0 0 0 0 0 0 0 0 0 0 0 0 0 0 0 0 0 0 0 0 0 0 0 0 0 0 0 0 0 0 0 0
3 0 0 0 3 0 0 0 0 0 0 0 0 0 0 0 0 0 0 0 0 0 0 0 0 0 0 0 0 0 0 0 0 0 0 0 0 0 0 0 0 0 0
0 0 0 0 0 0 0 0 0 0 0 0 0 0 0 0 0 0 0 0 0 0 0 0 0 0 0 0 0 0 0 0 0 0 0 0 0 0 0 0 0 0 0
0 0 0 0 0 0 0 0 0 0 0 0 0 0 0 0 0 0 0 0 0 0 0 0 0 0 0 0 0 0 0 0 0 0 0 0 0 0 0 0 0 0 0
0 0 0 0 0 0 0 0 0 0 0 0 0 0 0 0 0 0 0 0 0 0 0 0 0 0 0 0 0 0 0 0 0 0 0 0 0 0 0 0 0 0 0
0 0 0 0 0 0 0 0 0 0 0 0 0 0 0 0 0 0 0 0 0 0 0 0 0 0 0 0 0 0 0 0 0 0 0 0 0 0 0 0 0 0 0
0 0 0 0 0 0 0 0 0 0 0 0 0 0 0 0 0 0 0 0 0 0 0 0 0 0 0 0 0 0 0 0 0 0 0 0 0 0 0 0 0 0 0
0 0 0 0 0 0 0 0 0 0 0 0 0 0 0 0 0 0 0 0 0 0 0 0 0 0 0 0 0 0 0 0 0 0 0 0 0 0 0 0 0 0 0
0 0 0 0 0 0 0 0 0 0 0 0 0 0 0 0 0 0 0 0 0 0 0 0 0 0 0 0 0 0 0 0 0 0 0 0 0 0 0 0 0 0 0
0 0 0 0 0 0 0 0 0 0 0 0 0 0 0 0 0 0 0 0 0 0 0 0 0 0 0 0 0 0 0 0 0 0 0 0 0 0 0 0 0 0 0
0 0 0 0 0 0 0 0 0 0 0 0 0 0 0 0 0 0 0 0 0 0 0 0 0 0 0 0 0 0 0 0 0 0 0 0 0 0 0 0 0 0 0
0 0 0 0 0 0 0 0 0 0 0 0 0 0 0 0 0 0 0 0 0 0 0 0 0 0 0 0 0 0 0 0 0 0 0 0 0 0 0 0 0 0 0
0 0 0 0 0 0 0 0 0 0 0 0 0 0 0 0 0 0 0 0 0 0 0 0 0 0 0 0 0 0 0 0 0 0 0 0 0 0 0 0 0 0 0
Height
5888 5889 5890 5891 5892 5893 5893 5894 5895 5895 5895 5896 5896 5896 5896 5896 5896 5895 5895 5895 5894 5894 5893 5892 5892 5891 5890 5889 5888 5888 5887 5886 5885 5884 5883 5882 5881 5880 5879 5878 5877 5876 5874
5887 5888 5889 5890 5891 5892 5893 5893 5894 5894 5894 5895 5895 5895 5895 5895 5895 5895 5894 5894 5893 5892 5892 5891 5891 5890 5889 5888 5887 5886 5885 5884 5883 5882 5881 5880 5879 5878 5877 5876 5874 5873 5872
5885 5887 5888 5889 5890 5891 5892 5893 5893 5893 5894 5894 5894 5894 5894 5894 5894 5894 5893 5893 5892 5891 5891 5890 5889 5888 5888 5887 5886 5885 5884 5883 5882 5881 5880 5878 5877 5876 5875 5873 5872 5871 5869
5884 5885 5886 5888 5889 5890 5891 5891 5892 5892 5893 5893 5893 5893 5893 5893 5893 5892 5892 5891 5891 5890 5890 5889 5888 5887 5886 5885 5884 5883 5882 5881 5880 5879 5878 5876 5875 5874 5872 5871 5870 5868 5867
5882 5883 5885 5886 5887 5889 5890 5890 5891 5891 5892 5892 5892 5892 5892 5892 5892 5891 5891 5890 5889 5889 5888 5887 5886 5886 5885 5884 5883 5882 5881 5880 5878 5877 5876 5874 5873 5872 5870 5869 5867 5866 5864
5880 5881 5883 5885 5886 5887 5888 5889 5890 5890 5891 5891 5891 5891 5891 5891 5890 5890 5889 5889 5888 5887 5887 5886 5885 5884 5883 5882 5881 5880 5879 5878 5876 5875 5874 5872 5871 5869 5867 5866 5864 5863 5861
5877 5879 5881 5883 5884 5886 5887 5888 5888 5889 5889 5889 5890 5890 5890 5889 5889 5888 5888 5887 5887 5886 5885 5884 5883 5882 5881 5880 5879 5878 5876 5875 5874 5872 5871 5870 5868 5866 5865 5863 5861 5860 5858
5875 5877 5879 5881 5882 5884 5885 5886 5887 5887 5888 5888 5888 5888 5888 5887 5887 5887 5886 5885 5885 5884 5883 5882 5881 5880 5879 5878 5877 5875 5874 5873 5871 5870 5868 5867 5865 5863 5862 5860 5858 5857 5855
5872 5874 5876 5878 5880 5882 5883 5884 5885 5886 5886 5886 5886 5886 5886 5885 5885 5885 5884 5884 5883 5882 5881 5880 5879 5878 5877 5876 5874 5873 5871 5870 5869 5867 5865 5863 5862 5860 5858 5857 5855 5853 5851
5869 5871 5874 5876 5877 5879 5880 5882 5883 5883 5884 5884 5884 5884 5884 5883 5883 5883 5882 5881 5881 5880 5879 5878 5877 5876 5874 5873 5872 5870 5868 5867 5865 5864 5862 5860 5858 5856 5855 5853 5851 5849 5848
5865 5868 5870 5873 5875 5876 5878 5879 5880 5881 5881 5881 5882 5882 5881 5881 5881 5880 5880 5879 5878 5877 5876 5875 5874 5873 5872 5870 5869 5867 5865 5863 5862 5860 5858 5856 5854 5852 5851 5849 5847 5845 5843
5861 5864 5867 5869 5871 5873 5875 5876 5877 5878 5878 5879 5879 5879 5879 5878 5878 5878 5877 5876 5875 5874 5874 5873 5871 5870 5869 5867 5865 5864 5862 5860 5858 5856 5854 5852 5850 5848 5846 5844 5842 5840 5838
5857 5860 5863 5865 5868 5870 5871 5873 5874 5874 5875 5875 5876 5876 5875 5875 5875 5874 5874 5873 5872 5871 5870 5869 5868 5866 5865 5863 5862 5860 5858 5856 5854 5852 5849 5847 5845 5843 5841 5839 5837 5835 5833
5853 5856 5859 5861 5864 5866 5867 5869 5870 5871 5871 5872 5872 5872 5872 5872 5871 5871 5870 5869 5869 5868 5867 5865 5864 5862 5861 5859 5857 5856 5854 5852 5849 5847 5844 5842 5840 5838 5835 5833 5831 5829 5827
5848 5851 5854 5857 5859 5861 5863 5864 5866 5867 5867 5868 5868 5868 5868 5868 5867 5867 5866 5865 5864 5864 5862 5861 5860 5858 5856 5854 5852 5850 5848 5846 5844 5841 5839 5836 5834 5831 5829 5827 5825 5823 5821
5843 5846 5849 5852 5854 5856 5858 5860 5861 5862 5863 5863 5864 5864 5864 5863 5863 5862 5862 5861 5860 5859 5858 5856 5855 5853 5851 5849 5846 5844 5842 5840 5838 5835 5833 5830 5827 5824 5822 5820 5818 5816 5814
5837 5841 5844 5846 5849 5851 5853 5854 5856 5857 5858 5859 5859 5859 5859 5859 5858 5858 5857 5856 5855 5854 5852 5851 5849 5847 5845 5843 5840 5838 5836 5833 5831 5828 5826 5823 5820 5817 5814 5812 5810 5808 5806
5831 5835 5838 5841 5843 5845 5847 5849 5850 5851 5852 5853 5853 5854 5854 5853 5853 5853 5852 5850 5849 5848 5846 5845 5843 5841 5838 5836 5833 5831 5829 5826 5824 5821 5818 5815 5812 5809 5806 5803 5801 5799 5797
5825 5829 5832 5835 5837 5839 5841 5843 5844 5846 5846 5847 5847 5848 5848 5848 5847 5847 5846 5845 5843 5842 5840 5838 5836 5834 5832 5829 5826 5824 5821 5819 5816 5813 5810 5806 5803 5800 5797 5794 5792 5790 5788
5818 5822 5825 5828 5831 5833 5835 5837 5838 5839 5840 5841 5841 5841 5841 5841 5841 5841 5840 5838 5837 5835 5833 5831 5829 5827 5825 5822 5819 5817 5814 5811 5808 5805 5801 5798 5795 5791 5788 5785 5782 5780 5778
5811 5815 5818 5821 5824 5826 5828 5830 5831 5833 5834 5834 5835 5835 5835 5835 5834 5834 5833 5831 5830 5828 5826 5824 5822 5820 5817 5814 5811 5809 5807 5803 5800 5796 5793 5790 5786 5782 5779 5776 5772 5770 5767
5803 5807 5810 5813 5816 5818 5820 5822 5824 5825 5827 5827 5828 5828 5828 5827 5827 5826 5825 5824 5822 5821 5819 5816 5814 5812 5809 5806 5803 5800 5799 5797 5792 5788 5784 5781 5777 5773 5770 5766 5762 5759 5756
5795 5799 5802 5805 5807 5810 5812 5814 5816 5817 5818 5819 5820 5820 5820 5820 5819 5818 5817 5816 5814 5812 5810 5808 5805 5803 5800 5797 5793 5790 5788 5787 5784 5781 5776 5772 5767 5763 5759 5755 5751 5747 5744
5786 5790 5793 5796 5799 5802 5804 5806 5808 5809 5810 5811 5811 5812 5811 5811 5811 5810 5809 5807 5805 5803 5801 5798 5795 5793 5790 5787 5784 5780 5777 5775 5772 5771 5769 5763 5758 5754 5749 5745 5740 5736 5732
5778 5782 5785 5788 5790 5793 5795 5797 5799 5800 5802 5803 5803 5803 5803 5802 5802 5801 5800 5798 5796 5794 5792 5789 5786 5783 5780 5777 5774 5771 5767 5764 5760 5758 5757 5754 5749 5744 5739 5734 5729 5724 5720
5769 5773 5776 5778 5781 5784 5786 5788 5790 5791 5793 5794 5794 5794 5794 5793 5793 5792 5790 5789 5787 5785 5782 5779 5776 5773 5770 5767 5764 5760 5757 5754 5751 5747 5745 5743 5739 5735 5729 5723 5718 5713 5708
Wind_Speed
13 12 11 10 8 7 6 5 4 3 3 3 3 5 6 7 8 9 9 9 9 9 9 9 10 10 10 11 11 11 12 12 13 14 14 15 16 16 17 17 17 17 17
14 13 12 10 9 8 6 5 4 3 3 3 4 5 7 8 9 9 9 9 9 9 10 10 10 11 11 12 12 12 13 13 14 15 15 16 16 17 17 17 17 18 18
15 13 12 10 9 8 7 5 4 3 3 4 5 6 8 9 9 10 10 10 10 10 10 11 11 12 12 12 13 13 13 14 15 15 16 17 17 17 17 18 18 18 18
15 14 12 11 9 8 7 6 5 4 4 4 6 7 8 9 10 10 10 10 10 10 11 11 12 12 13 13 13 14 14 15 15 16 17 17 17 18 18 18 18 18 18
16 15 13 11 10 8 7 6 5 5 5 6 7 8 9 10 11 11 11 11 11 11 12 12 13 13 14 14 14 15 15 15 16 17 17 18 18 18 18 19 19 19 19
17 16 14 12 10 9 8 7 6 6 7 7 9 10 11 11 12 12 12 12 12 12 13 13 13 14 15 15 15 16 17 17 17 18 18 19 19 19 19 19 19 19 19
18 16 14 12 11 9 8 8 7 8 8 9 10 11 12 13 13 13 13 13 13 13 14 14 15 15 16 16 17 17 18 19 19 20 20 20 20 21 21 21 20 20 20
19 17 15 13 12 10 9 9 8 9 9 10 11 12 13 13 14 14 14 14 15 15 15 16 16 16 17 17 18 19 19 20 21 21 22 22 22 22 22 22 22 22 22
21 18 16 15 13 12 11 10 10 10 11 11 12 13 14 14 15 15 15 16 16 16 16 17 17 18 18 19 20 20 21 22 22 23 23 24 24 24 24 24 24 24 24
22 20 18 17 16 14 13 12 11 11 12 12 13 14 14 15 15 16 16 17 17 18 18 18 19 19 20 21 21 22 23 24 24 24 25 25 26 26 26 26 27 27 26
24 22 20 19 18 16 15 14 13 13 13 14 14 14 15 16 16 17 17 18 19 19 19 19 20 20 21 22 23 24 25 26 26 27 27 27 28 28 28 28 29 29 29
27 25 23 21 20 18 17 16 15 15 15 15 15 16 16 17 17 18 18 19 19 20 20 21 21 22 22 23 24 25 26 27 28 29 29 30 30 30 30 30 30 30 30
29 27 25 23 22 21 19 18 18 17 17 17 17 18 18 19 19 19 19 20 20 21 21 22 23 23 24 25 25 26 27 29 30 31 31 32 32 33 33 33 32 32 32
31 29 27 26 24 23 22 21 20 20 20 19 19 19 20 20 20 20 21 21 22 22 23 23 24 25 26 27 27 28 29 30 31 32 33 34 34 35 35 35 35 35 34
32 31 30 28 27 25 24 24 23 23 22 22 21 21 22 22 22 22 23 23 24 24 24 25 26 27 28 29 30 30 31 32 32 34 35 36 36 37 37 37 37 37 37
35 33 32 30 29 28 27 27 26 25 25 24 24 23 24 24 24 24 25 25 26 26 26 27 28 28 29 31 32 33 34 34 35 36 37 37 38 39 39 39 39 39 39
37 36 34 33 32 31 30 29 29 28 27 27 26 26 26 26 26 26 27 27 28 28 28 29 30 31 32 33 35 36 36 37 38 39 39 40 40 41 41 41 41 41 41
39 38 37 36 35 34 33 32 31 31 30 29 29 28 28 28 28 28 28 29 30 30 31 32 33 34 35 37 38 39 39 40 41 41 41 42 42 43 43 43 43 43 42
42 40 39 38 37 36 35 35 34 33 32 32 32 31 31 30 30 30 30 31 32 33 33 34 35 37 38 39 41 41 42 42 43 43 43 44 44 44 44 45 45 44 44
43 42 41 40 39 39 38 37 36 35 35 35 34 33 33 33 33 33 33 33 34 35 36 37 38 39 40 42 43 43 44 44 44 44 44 45 45 45 46 46 46 46 46
45 44 43 42 42 41 40 39 39 38 37 37 36 35 35 35 35 35 35 36 37 38 39 40 41 41 42 44 45 45 44 45 44 45 45 45 45 45 46 47 47 47 47
46 45 45 44 44 43 42 42 41 40 39 38 38 37 37 37 37 37 37 38 39 40 41 42 43 43 44 45 46 46 45 44 44 45 45 45 45 46 46 47 48 49 49
47 46 46 45 45 44 44 43 42 42 41 40 40 40 39 39 39 39 40 41 42 42 43 44 45 45 46 46 47 47 47 46 44 43 43 44 45 46 47 48 49 50 50
47 47 47 46 46 45 45 44 44 43 42 42 42 41 41 41 41 41 42 43 43 44 44 45 46 47 48 47 47 47 47 47 46 45 44 44 44 45 47 48 49 49 50
45 46 47 47 47 47 47 46 46 45 44 43 43 43 43 43 43 44 44 44 44 45 45 46 47 48 48 48 47 47 46 46 46 46 44 43 44 46 47 48 48 49 49
44 45 46 47 47 47 47 47 47 46 45 45 44 44 44 45 45 45 45 45 45 46 46 47 48 48 48 48 47 47 46 46 46 46 44 44 45 45 46 46 47 48 48
Wind_Direction
227 231 236 244 251 256 260 263 265 272 295 322 336 341 343 343 343 343 340 338 337 335 334 333 333 332 329 327 325 324 322 320 318 317 316 316 315 315 315 315 315 314 314
232 235 240 246 252 256 260 261 263 274 300 323 335 339 341 341 339 336 334 333 332 331 332 334 332 330 327 325 324 322 320 318 316 315 315 314 314 313 313 313 312 312 312
234 236 239 242 246 252 256 258 265 278 302 323 333 336 337 336 334 331 329 328 327 327 329 330 329 328 326 325 323 321 319 317 315 314 314 313 313 312 311 311 311 310 310
233 233 234 236 240 246 252 258 268 282 304 320 327 329 329 329 329 328 327 326 325 326 326 325 325 325 324 322 320 319 318 316 315 314 313 312 312 311 311 311 310 309 309
231 230 228 230 234 241 249 260 271 285 301 311 317 321 324 325 325 326 326 326 325 324 324 323 323 322 322 321 319 318 317 315 314 314 313 312 310 310 310 310 309 308 307
228 228 227 227 230 236 247 259 272 285 296 304 311 315 319 321 321 322 324 324 324 323 322 322 321 320 319 318 317 316 315 313 312 312 311 311 309 308 308 307 306 305 304
226 226 227 228 232 237 246 257 269 279 289 299 305 309 313 316 317 318 320 321 321 321 321 321 319 317 316 315 314 314 313 313 312 311 310 309 308 306 305 304 304 302 301
225 226 229 231 236 241 249 258 267 275 284 291 298 304 308 311 313 315 316 318 318 319 319 319 317 315 314 313 312 311 311 310 310 309 308 307 306 305 303 302 301 299 298
225 227 230 235 240 246 253 262 269 274 279 285 291 298 304 306 308 311 313 315 315 316 317 317 316 315 313 312 311 310 310 309 308 307 306 305 304 304 302 301 299 298 296
226 228 232 237 243 249 256 264 271 275 279 283 288 293 298 302 305 307 310 311 312 313 314 314 314 314 312 311 310 309 309 309 308 307 306 305 304 304 302 300 299 297 295
227 229 233 238 245 251 258 265 271 275 280 283 287 290 293 297 300 303 305 307 309 310 311 312 312 312 311 310 309 308 308 308 307 306 306 305 304 303 302 300 298 297 295
229 231 235 240 246 252 258 265 270 274 278 282 285 288 291 294 297 300 302 303 305 307 308 310 310 311 310 309 308 307 307 306 306 306 305 304 303 302 301 300 298 296 295
230 232 236 241 247 253 258 264 269 273 276 280 284 288 291 294 297 299 300 301 303 305 306 308 308 308 308 308 307 306 305 305 305 305 305 304 303 302 300 299 298 297 295
231 234 237 242 248 253 258 263 267 271 275 278 282 286 290 293 295 297 299 301 302 304 305 306 306 306 306 306 306 305 305 304 304 304 303 303 302 301 300 299 297 296 295
231 234 238 243 248 252 257 260 264 268 272 276 279 284 287 291 294 296 298 299 301 302 303 303 304 304 304 304 304 304 304 303 303 302 302 302 301 300 299 298 297 296 294
232 235 239 243 248 252 256 259 262 266 269 273 276 281 284 288 291 293 295 297 298 300 301 301 302 302 302 302 302 302 302 302 302 301 301 301 300 300 299 298 297 296 295
232 236 240 244 248 251 255 259 262 265 268 271 274 278 281 284 287 290 293 294 296 297 298 299 300 300 300 300 300 300 301 301 301 300 300 300 300 300 299 298 297 296 295
234 237 240 244 248 252 255 259 262 265 268 271 273 276 279 282 284 287 289 291 293 295 296 297 297 298 299 299 299 300 300 300 300 300 300 300 299 299 298 298 297 296 295
236 238 241 244 248 251 255 258 261 264 267 270 272 275 277 280 282 284 286 288 290 292 293 294 295 296 297 298 298 299 300 299 299 300 300 299 299 298 298 298 297 296 295
236 239 241 244 247 250 253 257 259 262 265 268 271 273 276 278 280 282 284 286 288 290 291 292 294 295 295 296 296 297 298 299 299 300 299 299 298 298 298 298 297 295 294
238 239 241 244 247 249 252 255 257 260 263 265 268 271 273 276 278 280 283 284 286 288 289 291 292 293 293 294 295 296 297 298 299 299 299 299 299 298 298 298 297 295 294
239 241 243 245 247 249 252 254 256 259 261 264 266 268 271 274 277 279 281 283 285 286 288 289 290 291 292 294 295 295 296 296 297 298 299 299 299 299 299 298 297 296 294
239 241 243 245 247 249 252 254 257 259 261 263 266 268 271 274 276 278 280 282 284 286 288 289 290 292 293 294 295 296 297 297 296 297 298 299 299 299 299 299 298 297 295
240 241 243 245 248 250 252 255 257 259 261 264 266 269 271 274 276 278 280 282 284 286 288 290 291 293 294 295 296 297 297 297 297 297 298 298 298 299 299 300 299 297 296
240 242 244 246 248 250 252 255 257 259 261 263 265 268 271 273 275 278 280 282 284 286 288 290 292 293 294 295 296 296 297 298 298 299 299 298 299 300 300 300 300 299 298
241 243 245 247 249 250 252 254 256 259 260 263 265 268 270 273 275 277 280 282 284 286 288 290 292 293 294 295 295 296 296 297 298 299 299 299 300 300 301 301 301 300 299